Tracking 18843 objects as of 20-November-2017
HD Live streaming from Space Station
objects crossing your sky now

METEOSAT 5 AKM

Track METEOSAT 5 AKM now!


NORAD ID: 21904
Int'l Code: 1991-015E
Perigee: 35,179.5 km
Apogee: 36,494.2 km
Inclination: 14.5 °
Period: 1,438.3 minutes
Semi major axis: 42207 km
RCS: 0.9471 m2 (medium)
Launch date: March 2, 1991
Source: European Space Agency (ESA)
Launch site: FRENCH GUIANA (FRGUI)

Note: This is a ROCKET BODY
aabbcc
Your satellite tracking list
Your tracking list is empty




NASA's NSSDC Master Catalog

Two Line Element Set (TLE):
1 21904U 91015E   17322.56799859 -.00000242 +00000-0 +00000-0 0  9994
2 21904 014.4614 003.6653 0155741 154.6977 009.3083 01.00118345084999
Source of the keplerian elements: AFSPC